Location: Unspecified
(0.0000°N, 0.0000°E)
Time: 18:52:02
(UTC+00:00)

STARLINK-1172 - Pass Details

Date: 17 June 2025
Orbit: 546 x 548 km, 53.1° (Epoch: 20 July)

Event Time Altitude Azimuth Distance (km) Brightness Sun altitude
Rises 18:31:35 0° 345° (NNW) 2,700 7.8 -7.0°
Reaches altitude 10° 18:34:04 10° 358° (N) 1,810 6.6 -7.6°
Maximum altitude 18:37:32 26° 56° (NE) 1,094 4.9 -8.4°
Enters shadow 18:40:41 12° 111° (ESE) 1,708 5.4 -9.1°
